Regional Weather Roundup
Issued by NWS San Angelo, TX

Home | Current Version | Previous Version | Text Only | Print | Product List | Glossary On
Versions: 1 2 3 4 5 6 7 8 9 10 11 12 13 14 15 16 17 18 19 20 21 22 23 24 25 26 27 28 29 30 31 32 33 34 35 36 37 38 39 40 41 42 43 44 45 46 47 48 49 50
000
ASUS44 KSJT 022011
RWRSJT
WEST CENTRAL TEXAS REGIONAL WEATHER ROUNDUP
NATIONAL WEATHER SERVICE SAN ANGELO TX
300 PM CDT WED SEP 02 2015

NOTE: "FAIR" INDICATES FEW OR NO CLOUDS BELOW 12,000 FEET WITH NO
SIGNIFICANT WEATHER AND/OR OBSTRUCTIONS TO VISIBILITY.

TXZ049-054-064>066-071>073-076>078-098-099-113-114-127-128-139-140-
154-155-168>170-022100
...LOCATIONS ACROSS WEST CENTRAL TEXAS...

CITY           SKY/WX    TMP DP  RH WIND       PRES   REMARKS
SAN ANGELO     MOSUNNY   94  59  31 S10G17    30.00F
ABILENE        PTSUNNY   94  58  29 S13       30.01F
DYESS AFB      MOSUNNY   94  61  33 S10       29.99F
JUNCTION       SUNNY     91  62  37 MISG      30.01F
SWEETWATER     SUNNY     92  53  26 E5        30.06F
BROWNWOOD      SUNNY     90  61  37 E8        30.00F
COLEMAN        PTCLDY    93  62  35 SE6       30.01F
SONORA         MOSUNNY   90  61  37 VRB5G12   30.06F
OZONA          FAIR      91  55  29 S8G18     30.06F
BRADY          SUNNY     93  61  33 E8        30.01F
$$

TEXAS PANHANDLE/OKLAHOMA PANHANDLE

CITY           SKY/WX    TMP DP  RH WIND       PRES   REMARKS
AMARILLO       MOSUNNY   90  56  31 S20       30.06F
BORGER         MOSUNNY   94  55  26 S12G24    30.00F
CANADIAN       SUNNY     94  58  29 S16G24    29.97F
DALHART        PTSUNNY   94  52  24 SW13G22   30.03F
DUMAS          MOCLDY    94  51  23 S15G24    30.02F
GUYMON         NOT AVBL
HEREFORD       PTCLDY    92  55  28 S18G25    30.07F
PAMPA          PTCLDY    93  55  27 SW16G25   30.04F
PERRYTON       SUNNY     96  53  23 S21G26    29.98F
$$

SOUTHERN PANHANDLE/SOUTH PLAINS/ROLLING PLAINS

CITY           SKY/WX    TMP DP  RH WIND       PRES   REMARKS
LUBBOCK        PTSUNNY   91  54  28 S16G22    30.06F
SNYDER         SUNNY     91  57  31 S6        30.04F
CHILDRESS      SUNNY     95  57  27 S13G20    29.98F
SEMINOLE       CLEAR     92  49  22 S12G20    30.08F
$$

PERMIAN BASIN

CITY           SKY/WX    TMP DP  RH WIND       PRES   REMARKS
MIDLAND        SUNNY     92  56  29 SE17G23   30.04F
ODESSA         SUNNY     92  53  26 S13       30.06F
WINK           SUNNY     93  53  25 SE12G22   30.02F
$$

FAR WEST/SOUTHWEST MOUNTAINS/TRANS PECOS

CITY           SKY/WX    TMP DP  RH WIND       PRES   REMARKS
ALPINE         CLEAR     91  43  19 NE7       30.18F
DRYDEN         NOT AVBL
EL PASO        PTSUNNY   97  42  15 NW6       30.04F
FORT STOCKTON  SUNNY     93  55  27 SE14      30.04F
GUADALUPE PASS MOSUNNY   87  49  26 E10       30.21F
MARFA          SUNNY     90  45  20 E5G17     30.15F
PECOS          CLEAR     95  55  25 E8G18     30.00F
$$

DALLAS/FORT WORTH METROPLEX

CITY           SKY/WX    TMP DP  RH WIND       PRES   REMARKS
DFW AIRPORT    MOSUNNY   93  63  36 S9        29.99F
FTW MEACHAM    SUNNY     93  61  34 SE10      29.99F
DAL-EXECUTIVE  MOSUNNY   92  61  35 S8G20     30.00F
GRAND PRAIRIE  SUNNY     91  64  40 E6        30.02F
ADDISON        MOSUNNY   91  59  33 S14       30.02F
MESQUITE       CLEAR     91  63  38 SE7       30.01F
LANCASTER      PTCLDY    92  60  34 S9G17     30.02F
$$

NORTH CENTRAL TEXAS

CITY           SKY/WX    TMP DP  RH WIND       PRES   REMARKS
SHRMAN/DENISON PTCLDY    94  65  37 S9        30.02F
GAINESVILLE    SUNNY     91  61  37 S12       30.02F
BRIDGEPORT     CLEAR     93  62  35 SE7       30.01F
DENTON         SUNNY     92  63  38 S8G21     29.99F
WAXAHACHIE     PTCLDY    92  65  40 S6        30.02F
GRANBURY       CLEAR     92  61  34 SE10      30.01F
$$

WESTERN NORTH TEXAS

CITY           SKY/WX    TMP DP  RH WIND       PRES   REMARKS
WICHITA FALLS  MOSUNNY   95  63  34 SE12      29.97F
VERNON         CLEAR     96  50  20 S9G18     29.98F
BRECKENRIDGE   PTCLDY    95  59  29 SE14      29.98F HAZE
COMANCHE       SUNNY     92  60  33 S6        30.01F
$$

CENTRAL AND SOUTH CENTRAL TEXAS

CITY           SKY/WX    TMP DP  RH WIND       PRES   REMARKS
AUSTIN/BERGSTM PTSUNNY   90  65  43 VRB6      29.98F
WACO           MOSUNNY   93  64  38 S10       30.00F
HILLSBORO      PTCLDY    91  63  38 SE10G16   30.01F
TEMPLE         PTSUNNY   90  64  43 E13       30.00F
KILLEEN-GRAY   MOSUNNY   91  63  39 E7        30.00F
FORT HOOD      SUNNY     90  65  43 SE14      29.99F
GEORGETOWN     MOSUNNY   91  64  40 E9        30.01F
LAGO VISTA     FAIR      89  63  41 E8        30.03F
SAN MARCOS     PTSUNNY   90  66  45 E7        29.99F
NEW BRAUNFELS  PTSUNNY   91  65  41 E5        29.97F
RANDOLPH AFB   MOSUNNY   90  65  43 SE5       29.98F
SAN ANTONIO    MOSUNNY   91  64  40 VRB5      29.99F
STINSON        PTSUNNY   92  65  40 VRB3      29.95F
PLEASANTON     NOT AVBL
LA GRANGE      MOSUNNY   89  72  56 SE7       29.96F
GIDDINGS       PTCLDY    91  66  44 E10G16    30.02F
$$

EAST TEXAS

CITY           SKY/WX    TMP DP  RH WIND       PRES   REMARKS
PARIS          MOSUNNY   91  63  38 S7        30.03F
CLARKSVILLE    NOT AVBL
TYLER          MOSUNNY   89  65  44 SE6       30.02F
LONGVIEW       MOSUNNY   91  67  44 SE8       30.02F
PALESTINE      MOCLDY    89  65  45 E5        30.02F
NACOGDOCHES    PTSUNNY   91  63  38 SE8       30.00F
$$

TEXAS HILL COUNTRY AND EDWARDS PLATEAU

CITY           SKY/WX    TMP DP  RH WIND       PRES   REMARKS
LLANO          CLEAR     93  59  31 SE6       30.02F
HORSESHOE BAY  FAIR      91  63  39 E10       30.01F
KERRVILLE      MOSUNNY   89  64  44 NE9       30.01F
FREDERICKSBRG  SUNNY     90  57  32 CALM      30.01F
ROCKSPRINGS    PTCLDY    86  64  48 SE8       30.07F
HONDO          MOSUNNY   92  65  40 VRB3      29.99F
UVALDE         CLEAR     90  67  46 CALM      29.97F
DEL RIO        SUNNY     92  67  43 S7        29.96F
$$

SOUTHEAST TEXAS

CITY           SKY/WX    TMP DP  RH WIND       PRES   REMARKS
COLLEGE STN    CLOUDY    86  70  58 SE9       29.99F
CALDWELL       CLEAR     90  66  45 E7        30.02F
CROCKETT       MOCLDY    90  64  43 SE3       30.03F
BRENHAM        SUNNY     89  71  55 SE9       30.00F
HUNTSVILLE     MOSUNNY   91  62  37 VRB5      30.00F
CONROE         LGT RAIN  87  65  47 E6G16     30.00F
HOUSTON BUSH   LGT RAIN  83  71  67 E14       30.00F
HOUSTON HOBBY  MOSUNNY   85  71  63 E9G18     29.99F
PERLAND        MOSUNNY   86  70  58 E12G22    30.00F
WHARTON        RAIN      85  71  63 SE3       29.98F
$$

THE UPPER TEXAS COAST

CITY           SKY/WX    TMP DP  RH WIND       PRES   REMARKS
ORANGE         MOCLDY    85  68  56 SE9       30.02F
PORT ARTHUR    MOSUNNY   87  74  64 E10G18    29.99F
GALVESTON      MOSUNNY   84  76  76 E14       30.00F
ANGLETON       SUNNY     86  73  65 E10       29.98F
BAY CITY       MOCLDY    87  75  67 SE7       29.97F
$$

TEXAS COASTAL BEND, RIO GRANDE PLAINS DEEP SOUTH TEXAS

CITY           SKY/WX    TMP DP  RH WIND       PRES   REMARKS
VICTORIA       SUNNY     90  70  51 E7        29.96F
BEEVILLE       FAIR      92  73  53 E8        29.95F
ROCKPORT       MOSUNNY   85  74  69 E9        29.95F
PORT ARANSAS   PTCLDY    84  76  76 SE8       29.96F
PORT LAVACA    PTCLDY    87  76  70 SE9       29.97F
CORPUS CHRISTI MOSUNNY   89  74  60 E16       29.95F
KINGSVILLE NAS PTSUNNY   93  77  59 E14G21    29.93F
COTULLA        MOSUNNY   95  66  38 VRB3      29.94F
LAREDO         SUNNY     95  68  41 VRB3      29.94F
BROWNSVILLE    PTSUNNY   92  76  59 E6        29.92F
PORT ISABEL    SUNNY     92  75  57 E13       29.92F
HEBBRONVILLE   NOT AVBL
MCALLEN        MOSUNNY   94  73  50 E6        29.90F
WESLACO        MOSUNNY   92  73  54 E13       29.91F
FALFURRIAS     MOCLDY    94  69  44 E6        29.91F
EDINBURG       CLEAR     94  71  46 E9        29.91F
$$


USA.gov is the U.S. government's official web portal to all federal, state and local government web resources and services.